Change the Weather History Date:

Saturday, November 19, 2011

  Actual Average Record
Temperature  
Mean Temperature 76 °F -  
Max Temperature 86 °F 68 °F 86 °F (2011)
Min Temperature 66 °F 49 °F 34 °F (2014)
Cooling Degree Days 11    
Growing Degree Days 26 (Base 50)    
Moisture  
Dew Point 65 °F    
Average Humidity 80    
Maximum Humidity 94    
Minimum Humidity 44    
Precipitation  
Precipitation 0.00 in - - ()
Sea Level Pressure  
Sea Level Pressure 29.92 in    
Wind  
Wind Speed 5 mph (SSE)    
Max Wind Speed 14 mph    
Max Gust Speed 21 mph    
Visibility 10 miles    
Events      
Averages and records for this station are not official NWS values.
T = Trace of Precipitation, MM = Missing Value Source: NWS Daily Summary

Daily Weather History Graph

Daily Weather History Graph

Search for Another Location

Airport or City:

Trip Planner

Search our weather history database for the weather conditions in past years. The results will help you decide how hot, cold, wet, or windy it might be!

Date:

Astronomy

Nov. 19, 2011 Rise Set
Actual Time 7:00 AM CST 5:37 PM CST
Civil Twilight 6:35 AM CST 6:02 PM CST
Nautical Twilight 6:06 AM CST 6:31 PM CST
Astronomical Twilight 5:38 AM CST 6:59 PM CST
Moon 12:51 AM CST (11/19) 1:30 PM CST (11/19)
Length of Visible Light 11h 27m
Length of Day
10h 36m
Last Quarter, 38% of the Moon is Illuminated
Nov 19
Last Quarter
Nov 25
New
Dec 2
First Quarter
Dec 10
Full
Dec 17
Last Quarter

Hourly Weather History & Observations

Time (CST) Temp. Heat Index Dew Point Humidity Pressure Visibility Wind Dir Wind Speed Gust Speed Precip Events Conditions
12:49 AM 69.8 °F - 62.6 °F 78% 29.97 in 10.0 mi SSE 5.8 mph - N/A   Overcast
12:53 AM 70.0 °F - 63.0 °F 78% 29.95 in 10.0 mi South 5.8 mph - N/A   Overcast
1:53 AM 69.1 °F - 63.0 °F 81% 29.94 in 10.0 mi SE 5.8 mph - N/A   Overcast
3:04 AM 68.0 °F - 64.4 °F 88% 29.94 in 10.0 mi SE 4.6 mph - N/A   Overcast
3:13 AM 68.0 °F - 64.4 °F 88% 29.94 in 10.0 mi SE 4.6 mph - N/A   Overcast
3:53 AM 68.0 °F - 64.0 °F 87% 29.93 in 10.0 mi Calm Calm - N/A   Overcast
4:43 AM 66.2 °F - 64.4 °F 94% 29.94 in 10.0 mi Calm Calm - N/A   Overcast
4:53 AM 66.9 °F - 64.0 °F 90% 29.92 in 10.0 mi Calm Calm - N/A   Overcast
5:53 AM 66.0 °F - 63.0 °F 90% 29.92 in 10.0 mi SE 3.5 mph - N/A   Overcast
6:41 AM 66.2 °F - 64.4 °F 94% 29.94 in 10.0 mi Calm Calm - N/A   Overcast
6:53 AM 66.9 °F - 64.0 °F 90% 29.93 in 10.0 mi Calm Calm - N/A   Overcast
7:32 AM 66.2 °F - 64.4 °F 94% 29.95 in 10.0 mi Calm Calm - N/A   Mostly Cloudy
7:38 AM 66.2 °F - 64.4 °F 94% 29.95 in 10.0 mi Calm Calm - N/A   Mostly Cloudy
7:53 AM 66.9 °F - 64.0 °F 90% 29.94 in 10.0 mi Calm Calm - N/A   Mostly Cloudy
8:30 AM 68.0 °F - 64.4 °F 88% 29.96 in 10.0 mi SE 4.6 mph - N/A   Mostly Cloudy
9:45 AM 71.6 °F - 66.2 °F 83% 29.97 in 10.0 mi SE 8.1 mph - N/A   Overcast
9:53 AM 71.1 °F - 66.0 °F 84% 29.95 in 10.0 mi South 5.8 mph - N/A   Overcast
10:46 AM 75.2 °F - 66.2 °F 73% 29.96 in 10.0 mi South 10.4 mph - N/A   Overcast
10:53 AM 75.9 °F - 66.9 °F 74% 29.94 in 10.0 mi South 10.4 mph - N/A   Overcast
11:50 AM 77.0 °F - 64.4 °F 65% 29.93 in 10.0 mi South 13.8 mph 20.7 mph N/A   Overcast
11:53 AM 78.1 °F - 64.9 °F 64% 29.90 in 10.0 mi South 12.7 mph 20.7 mph N/A   Overcast
12:07 PM 78.8 °F - 64.4 °F 61% 29.92 in 10.0 mi South 13.8 mph - N/A   Overcast
1:53 PM 81.0 °F 82.7 °F 64.9 °F 58% 29.84 in 10.0 mi SSE 9.2 mph - N/A   Mostly Cloudy
2:53 PM 84.9 °F 85.9 °F 63.0 °F 48% 29.81 in 10.0 mi SSW 9.2 mph - N/A   Clear
3:53 PM 86.0 °F 86.8 °F 63.0 °F 46% 29.81 in 10.0 mi SSW 4.6 mph - N/A   Clear
4:53 PM 86.0 °F 86.3 °F 62.1 °F 44% 29.81 in 10.0 mi SSW 4.6 mph - N/A   Clear
9:53 PM 73.0 °F - 70.0 °F 90% 29.91 in 10.0 mi ESE 4.6 mph - N/A   Clear
10:53 PM 72.0 °F - 70.0 °F 93% 29.92 in 10.0 mi ESE 5.8 mph - N/A   Clear
11:40 PM 71.6 °F - 69.8 °F 94% 29.95 in 10.0 mi SE 5.8 mph - N/A   Mostly Cloudy
11:53 PM 72.0 °F - 70.0 °F 93% 29.92 in 10.0 mi SE 6.9 mph - N/A   Overcast